Voltar ao catálogo

STARLINK-32131

AtivoComunicaçõesVLEO
NORAD 60153·PAYLOAD·🇺🇸 United States

Lançado Jun 27, 2024 de Cape Canaveral Space Force Station

Loading…

Próximas Passagens (próximas 24 horas)

TLE

AtualizadoSource: CelesTrak SupGP

Época: Sep 14, 2026, 14:32 UTC

1 60153C 24120U   26257.60604167  .00060280  00000+0  17814-2 0  2571
2 60153  53.1571 159.0144 0001250  87.5599  78.4080 15.34353152    14

Acompanhe STARLINK-32131 em tempo real com AllMySat

Download on the App Store